Versión en castellano
places Weather data articles

Conditions at Mairena del Aljarafe, Sevilla, Spain
Year Month Day Show

  Date        time        Out Temp.    Out hum.   Wind Dir.    Wind speed   SL Pressure   In T. Today rain 

   21-07-2024    08:20      23.7º(-0.7)     64%      337(NW)      4.8 km/h    1012.1 hpa     32.5º    0.0 mm
   21-07-2024    08:15      23.6º(-0.7)     64%      337(NW)      4.8 km/h    1012.0 hpa     32.5º    0.0 mm
   21-07-2024    08:10      23.5º(-0.6)     65%      000 (N)      4.8 km/h    1012.0 hpa     32.4º    0.0 mm
   21-07-2024    08:05      23.4º(-0.5)     65%      337(NW)      4.8 km/h    1011.9 hpa     32.4º    0.0 mm
   21-07-2024    08:00      23.4º(-0.5)     64%      000 (N)      4.8 km/h    1011.9 hpa     32.4º    0.0 mm
   21-07-2024    07:55      23.5º(-0.3)     64%      337(NW)      4.8 km/h    1011.7 hpa     32.4º    0.0 mm
   21-07-2024    07:50      23.6º(-0.2)     64%      337(NW)      4.8 km/h    1011.7 hpa     32.4º    0.0 mm
   21-07-2024    07:45      23.6º(-0.1)     63%      337(NW)      4.8 km/h    1011.6 hpa     32.4º    0.0 mm
   21-07-2024    07:40      23.7º(-0.0)     63%      000 (N)      3.2 km/h    1011.6 hpa     32.4º    0.0 mm
   21-07-2024    07:35      23.7º(-0.0)     63%      000 (N)      4.8 km/h    1011.6 hpa     32.4º    0.0 mm
   21-07-2024    07:30      23.8º(+0.0)     63%      000 (N)      4.8 km/h    1011.6 hpa     32.5º    0.0 mm
   21-07-2024    07:25      23.8º(+0.0)     63%      022 (N)      4.8 km/h    1011.5 hpa     32.5º    0.0 mm
   21-07-2024    07:20      23.9º(+0.1)     63%      000 (N)      4.8 km/h    1011.5 hpa     32.5º    0.0 mm
   21-07-2024    07:15      23.9º(+0.1)     62%      000 (N)      4.8 km/h    1011.5 hpa     32.5º    0.0 mm
   21-07-2024    07:10      24.1º(+0.3)     62%      000 (N)      3.2 km/h    1011.4 hpa     32.5º    0.0 mm
   21-07-2024    07:05      24.1º(+0.2)     61%      000 (N)      1.6 km/h    1011.4 hpa     32.5º    0.0 mm
   21-07-2024    07:00      24.1º(+0.2)     61%      000 (N)      3.2 km/h    1011.5 hpa     32.5º    0.0 mm
   21-07-2024    06:55      24.2º(+0.3)     61%      000 (N)      1.6 km/h    1011.5 hpa     32.5º    0.0 mm
   21-07-2024    06:50      24.3º(+0.4)     61%      000 (N)      1.6 km/h    1011.5 hpa     32.5º    0.0 mm
   21-07-2024    06:45      24.3º(+0.2)     61%      000 (N)      1.6 km/h    1011.4 hpa     32.5º    0.0 mm
   21-07-2024    06:40      24.3º(+0.1)     61%      000 (N)      1.6 km/h    1011.4 hpa     32.5º    0.0 mm
   21-07-2024    06:35      24.3º(+0.0)     61%      000 (N)      1.6 km/h    1011.4 hpa     32.5º    0.0 mm
   21-07-2024    06:30      24.4º(+0.1)     61%      000 (N)      3.2 km/h    1011.3 hpa     32.5º    0.0 mm
   21-07-2024    06:25      24.4º(+0.1)     61%      337(NW)      4.8 km/h    1011.4 hpa     32.5º    0.0 mm
   21-07-2024    06:20      24.5º(+0.2)     60%      337(NW)      3.2 km/h    1011.3 hpa     32.5º    0.0 mm
   21-07-2024    06:15      24.5º(+0.3)     60%      337(NW)      4.8 km/h    1011.2 hpa     32.5º    0.0 mm
   21-07-2024    06:10      24.6º(+0.6)     60%      337(NW)      4.8 km/h    1011.2 hpa     32.5º    0.0 mm
   21-07-2024    06:05      24.6º(+0.8)     60%      000 (N)      4.8 km/h    1011.2 hpa     32.6º    0.0 mm
   21-07-2024    06:00      24.6º(+0.9)     60%      000 (N)      4.8 km/h    1011.2 hpa     32.6º    0.0 mm
   21-07-2024    05:55      24.7º(+1.1)     60%      337(NW)      4.8 km/h    1011.2 hpa     32.6º    0.0 mm
   21-07-2024    05:50      24.7º(+1.2)     60%      000 (N)      3.2 km/h    1011.2 hpa     32.6º    0.0 mm
   21-07-2024    05:45      24.7º(+1.4)     60%      000 (N)      3.2 km/h    1011.1 hpa     32.6º    0.0 mm
   21-07-2024    05:40      24.8º(+1.6)     60%      000 (N)      4.8 km/h    1011.0 hpa     32.6º    0.0 mm
   21-07-2024    05:35      24.9º(+1.7)     60%      000 (N)      3.2 km/h    1011.1 hpa     32.6º    0.0 mm
   21-07-2024    05:30      24.9º(+1.8)     59%      000 (N)      4.8 km/h    1011.1 hpa     32.6º    0.0 mm
   21-07-2024    05:25      25.1º(+2.0)     59%      000 (N)      3.2 km/h    1011.2 hpa     32.6º    0.0 mm
   21-07-2024    05:20      25.1º(+2.0)     59%      000 (N)      1.6 km/h    1011.1 hpa     32.6º    0.0 mm
   21-07-2024    05:15      25.2º(+2.1)     59%      000 (N)      1.6 km/h    1011.2 hpa     32.6º    0.0 mm
   21-07-2024    05:10      25.2º(+2.1)     58%      337(NW)      4.8 km/h    1011.2 hpa     32.6º    0.0 mm
   21-07-2024    05:05      25.3º(+2.2)     58%      000 (N)      1.6 km/h    1011.1 hpa     32.6º    0.0 mm
   21-07-2024    05:00      25.4º(+2.3)     58%      337(NW)      4.8 km/h    1011.1 hpa     32.6º    0.0 mm
   21-07-2024    04:55      25.4º(+2.2)     58%      337(NW)      3.2 km/h    1011.1 hpa     32.6º    0.0 mm
   21-07-2024    04:50      25.5º(+2.3)     58%      337(NW)      3.2 km/h    1011.3 hpa     32.7º    0.0 mm
   21-07-2024    04:45      25.5º(+2.3)     58%      337(NW)      1.6 km/h    1011.1 hpa     32.7º    0.0 mm
   21-07-2024    04:40      25.6º(+2.4)     58%      000 (N)      3.2 km/h    1011.2 hpa     32.7º    0.0 mm
   21-07-2024    04:35      25.7º(+2.5)     58%      000 (N)      3.2 km/h    1011.1 hpa     32.7º    0.0 mm
   21-07-2024    04:30      25.7º(+2.4)     57%      000 (N)      3.2 km/h    1011.3 hpa     32.7º    0.0 mm
   21-07-2024    04:25      25.8º(+2.4)     57%      000 (N)      3.2 km/h    1011.4 hpa     32.7º    0.0 mm
   21-07-2024    04:20      25.9º(+2.4)     57%      000 (N)      3.2 km/h    1011.4 hpa     32.7º    0.0 mm
   21-07-2024    04:15      26.0º(+2.4)     56%         -         0.0 km/h    1011.4 hpa     32.7º    0.0 mm
   21-07-2024    04:10      26.0º(+2.3)     56%      000 (N)      1.6 km/h    1011.4 hpa     32.7º    0.0 mm
   21-07-2024    04:05      26.0º(+2.2)     56%      000 (N)      3.2 km/h    1011.5 hpa     32.7º    0.0 mm
   21-07-2024    04:00      26.1º(+2.3)     56%      337(NW)      3.2 km/h    1011.5 hpa     32.7º    0.0 mm
   21-07-2024    03:55      26.1º(+2.2)     56%      337(NW)      4.8 km/h    1011.6 hpa     32.7º    0.0 mm
   21-07-2024    03:50      26.2º(+2.2)     56%      337(NW)      3.2 km/h    1011.6 hpa     32.7º    0.0 mm
   21-07-2024    03:45      26.3º(+2.2)     55%      337(NW)      3.2 km/h    1011.7 hpa     32.7º    0.0 mm
   21-07-2024    03:40      26.3º(+2.2)     55%      000 (N)      3.2 km/h    1011.6 hpa     32.7º    0.0 mm
   21-07-2024    03:35      26.4º(+2.2)     55%      000 (N)      4.8 km/h    1011.6 hpa     32.7º    0.0 mm
   21-07-2024    03:30      26.5º(+2.3)     54%      337(NW)      3.2 km/h    1011.6 hpa     32.7º    0.0 mm
   21-07-2024    03:25      26.7º(+2.5)     54%      315(NW)      4.8 km/h    1011.6 hpa     32.8º    0.0 mm
   21-07-2024    03:20      26.8º(+2.6)     54%      337(NW)      4.8 km/h    1011.5 hpa     32.8º    0.0 mm
   21-07-2024    03:15      26.9º(+2.6)     53%      315(NW)      4.8 km/h    1011.5 hpa     32.8º    0.0 mm
   21-07-2024    03:10      27.0º(+2.7)     53%      337(NW)      3.2 km/h    1011.6 hpa     32.8º    0.0 mm
   21-07-2024    03:05      27.1º(+2.7)     53%      337(NW)      3.2 km/h    1011.6 hpa     32.8º    0.0 mm
   21-07-2024    03:00      27.2º(+2.7)     52%      337(NW)      1.6 km/h    1011.7 hpa     32.8º    0.0 mm
   21-07-2024    02:55      27.2º(+2.7)     52%      337(NW)      1.6 km/h    1011.8 hpa     32.8º    0.0 mm
   21-07-2024    02:50      27.3º(+2.7)     51%      337(NW)      1.6 km/h    1011.9 hpa     32.8º    0.0 mm
   21-07-2024    02:45      27.4º(+2.7)     51%      337(NW)      1.6 km/h    1011.9 hpa     32.8º    0.0 mm
   21-07-2024    02:40      27.5º(+2.8)     51%      315(NW)      3.2 km/h    1011.9 hpa     32.8º    0.0 mm
   21-07-2024    02:35      27.6º(+2.9)     50%      315(NW)      3.2 km/h    1011.8 hpa     32.8º    0.0 mm
   21-07-2024    02:30      27.7º(+2.9)     50%      292 (W)      3.2 km/h    1011.9 hpa     32.8º    0.0 mm
   21-07-2024    02:25      27.8º(+3.0)     50%      292 (W)      3.2 km/h    1011.9 hpa     32.8º    0.0 mm
   21-07-2024    02:20      27.9º(+3.1)     49%      292 (W)      4.8 km/h    1011.8 hpa     32.8º    0.0 mm
   21-07-2024    02:15      28.1º(+3.3)     49%      337(NW)      3.2 km/h    1011.7 hpa     32.8º    0.0 mm
   21-07-2024    02:10      28.2º(+3.3)     49%      000 (N)      3.2 km/h    1011.7 hpa     32.8º    0.0 mm
   21-07-2024    02:05      28.3º(+3.4)     49%      315(NW)      4.8 km/h    1011.6 hpa     32.8º    0.0 mm
   21-07-2024    02:00      28.4º(+3.5)     48%      315(NW)      4.8 km/h    1011.6 hpa     33.0º    0.0 mm
   21-07-2024    01:55      28.6º(----)     48%      315(NW)      4.8 km/h    1011.6 hpa     33.0º    0.0 mm
   21-07-2024    01:50      28.7º(----)     48%      292 (W)      4.8 km/h    1011.6 hpa     33.0º    0.0 mm
   21-07-2024    01:45      28.8º(----)     47%      292 (W)      4.8 km/h    1011.5 hpa     33.0º    0.0 mm
   21-07-2024    01:40      28.9º(----)     47%      315(NW)      4.8 km/h    1011.5 hpa     33.0º    0.0 mm
   21-07-2024    01:35      29.0º(----)     47%      315(NW)      4.8 km/h    1011.5 hpa     33.0º    0.0 mm
   21-07-2024    01:30      29.1º(----)     47%      337(NW)      4.8 km/h    1011.6 hpa     33.0º    0.0 mm
   21-07-2024    01:25      29.2º(----)     46%      292 (W)      4.8 km/h    1011.5 hpa     33.0º    0.0 mm
   21-07-2024    01:20      29.4º(----)     46%      315(NW)      4.8 km/h    1011.5 hpa     33.0º    0.0 mm
   21-07-2024    01:15      29.5º(----)     46%      292 (W)      4.8 km/h    1011.5 hpa     33.0º    0.0 mm
   21-07-2024    01:10      29.6º(----)     46%      315(NW)      4.8 km/h    1011.5 hpa     33.0º    0.0 mm
   21-07-2024    01:05      29.6º(----)     45%      337(NW)      6.4 km/h    1011.5 hpa     33.0º    0.0 mm
   21-07-2024    01:00      29.7º(----)     45%      337(NW)      4.8 km/h    1011.6 hpa     33.0º    0.0 mm
   21-07-2024    00:55      29.8º(----)     45%      337(NW)      4.8 km/h    1011.6 hpa     33.0º    0.0 mm
   21-07-2024    00:50      29.9º(----)     44%      337(NW)      4.8 km/h    1011.5 hpa     33.0º    0.0 mm
   21-07-2024    00:45      30.0º(----)     44%      337(NW)      4.8 km/h    1011.4 hpa     33.0º    0.0 mm
   21-07-2024    00:40      30.1º(----)     44%      315(NW)      4.8 km/h    1011.4 hpa     33.0º    0.0 mm
   21-07-2024    00:35      30.2º(----)     43%      337(NW)      4.8 km/h    1011.3 hpa     33.0º    0.0 mm
   21-07-2024    00:30      30.3º(----)     43%      315(NW)      4.8 km/h    1011.2 hpa     33.0º    0.0 mm
   21-07-2024    00:25      30.4º(----)     42%      315(NW)      6.4 km/h    1011.1 hpa     33.0º    0.0 mm
   21-07-2024    00:20      30.4º(----)     42%      315(NW)      6.4 km/h    1011.2 hpa     33.0º    0.0 mm
   21-07-2024    00:15      30.4º(----)     42%      337(NW)      4.8 km/h    1011.3 hpa     33.0º    0.0 mm
   21-07-2024    00:10      30.4º(----)     42%      337(NW)      4.8 km/h    1011.2 hpa     33.0º    0.0 mm
   21-07-2024    00:05      30.4º(----)     42%      315(NW)      4.8 km/h    1011.2 hpa     33.0º    0.0 mm
   21-07-2024    00:00      30.4º(----)     42%      315(NW)      4.8 km/h    1011.1 hpa     33.0º    0.0 mm